User: anonymous   Login
Location: Evergreen Manor
(41.4083°N, 81.4939°W)
Time: 14:26:06
(UTC+00:00)
Language:

Okean 1-7 - Orbit

View from above orbital plane
View from above orbital plane
View from above satellite
View from above satellite

Ground track
Ground track

The orbit data is extracted from the following two-line orbital elements,

1 23317U 94066A   20056.74084399 +.00000180 +00000-0 +16941-4 0  9992
2 23317 082.5353 273.1227 0020800 042.8439 317.4394 14.87740818372177
Epoch (UTC): 25 February 2020 17:46:48
Eccentricity: 0.0020800
inclination: 82.5353°
perigee height: 590 km
apogee height: 619 km
right ascension of ascending node: 273.1227°
argument of perigee: 42.8439°
revolutions per day: 14.87740818
mean anomaly at epoch: 317.4394°
orbit number at epoch: 37217

The dashed part of the orbit path shows where the satellite is in the earth's shadow,  

DLR